SL-16 DEB, 39847

Orbit data source: Space-Track

SL-16 DEB, 39847 is space debris in LEO originally from a launch on Fri, 25 Dec 1992 UTC launched from the Tyuratam Missile And Space Complex (TTMTR). Debris objects in space refer to the collection of defunct objects orbiting the Earth. Examples of debris include non-operational satellites, rocket bodies, and fragments generated from explosions, collisions, or faulty payload assembly.

Loading next visibility...
Identifier
39847, 1992-093KZ
Orbit
LEO
Country
Flag of CISCIS
Related business
Manufacturer
Unknown
Mission
Spacecraft
Bus & Motor
Unknown
Mass
Unknown
Launch date (UTC)
1992-12-25 (33 years ago)
Launch vehicle
Unknown
Launch site
Tyuratam Missile And Space Complex (TTMTR)
Object type
Payload
Rocket body
Debris
Shape & HBR
Unknown shape, 0.1 m
Radar Cross Section
Small (<0.1 m²)

Expand to show TLE details & history
Last TLE update: 5 days ago

TLE from 5 days ago
0 SL-16 DEB
1 39847U 92093KZ  26168.30122132  .00001004  00000-0  31145-3 0  9993
2 39847  71.0307  37.7889 0054504  42.0754 318.4548 14.42675880631652
Epoch: 2026-06-17T07:13Z
TLE epoch observation values (Epoch: 2026-06-17T07:13:45.522Z)
Latitude
-0.00005°
Longitude
23.78834°
Altitude
723.118 km
Speed
7.509 km/s
True Right ascension
02h 31m 09s
True Declination
0° 00' 00"
Sunlit
Object was in daylight at epoch
Visualization orbit readout
Latitude
Unknown
Longitude
Unknown
Altitude
Unknown
Speed
Unknown
Apparent Right ascension
Unknown
Apparent Declination
Unknown
Sunlit
N/A
Visualization observer readout
Local Sidereal Time
02:31:49
Azimuth
Unknown
Elevation
Unknown
Doppler factor
Unknown
Orbital elements
Apogee altitude
786.404 km
Perigee altitude
708.728 km
Semi-major axis
7,125.703 km
Eccentricity
0.00545
Inclination
71.0307°
RAAN
37.7889°
Arg. of periapsis
42.0754°
True anomaly
318.03846°
Mean anomaly
318.4548°
Eccentric anomaly
318.24684°
Mean motion
3.60829 °/min
Orbital period
99.77 mins
BSTAR
0.00031145
Loading maneuver chart data...
Computing Atmospheric mass density...
Loading historical data...
Loading historical data...
Loading historical data...
Loading historical data...
Loading historical data...
Loading historical data...
Loading historical data...

Documentation

Showing up to 5 results
|